Dumas, TX

2:09 AM CST on December 06, 2016 (GMT -0600)
Moore County

Weather History for KDUX - March, 2014

Change the Weather History Date:

Tuesday, March 18, 2014

  Actual Average (KDHT) Record (KDHT)
Temperature  
Mean Temperature 46 °F 46 °F  
Max Temperature 59 °F 62 °F 82 °F (1978)
Min Temperature 32 °F 30 °F 9 °F (1965)
Degree Days  
Heating Degree Days 20 19  
Month to date heating degree days 386  
Since 1 July heating degree days 4029  
Cooling Degree Days 0 0  
Month to date cooling degree days 0  
Year to date cooling degree days 0  
Moisture  
Dew Point 17 °F    
Average Humidity 34    
Maximum Humidity 60    
Minimum Humidity 15    
Precipitation  
Precipitation 0.00 in 0.04 in 1.26 in (1999)
Month to date precipitation 0.60  
Year to date precipitation 1.52  
Snow  
Snow 0.00 in 0.20 in 11.80 in (1999)
Month to date snowfall 2.4  
Since 1 July snowfall 15.9  
Snow Depth -    
Sea Level Pressure  
Sea Level Pressure 29.66 in    
Wind  
Wind Speed 17 mph (NW)    
Max Wind Speed 40 mph    
Max Gust Speed 54 mph    
Visibility 7 miles    
Events      
T = Trace of Precipitation, MM = Missing Value Source: NWS Daily Summary

Daily Weather History Graph

Daily Weather History Graph

Search for Another Location

Airport or City:

Trip Planner

Search our weather history database for the weather conditions in past years. The results will help you decide how hot, cold, wet, or windy it might be!

Date:

Astronomy

Mar. 18, 2014 Rise Set
Actual Time 7:54 AM CDT 7:58 PM CDT
Civil Twilight 7:28 AM CDT 8:23 PM CDT
Nautical Twilight 6:59 AM CDT 8:53 PM CDT
Astronomical Twilight 6:29 AM CDT 9:23 PM CDT
Moon 10:12 PM CDT (3/18) 8:49 AM CDT (3/18)
Length of Visible Light 12h 54m
Length of Day
12h 03m
Waning Gibbous, 96% of the Moon is Illuminated
Mar 18
Waning Gibbous
Mar 23
Last Quarter
Mar 30
New
Apr 7
First Quarter
Apr 15
Full

Hourly Weather History & Observations

Time (CDT) Temp. Windchill Dew Point Humidity Pressure Visibility Wind Dir Wind Speed Gust Speed Precip Events Conditions
12:15 AM 52.2 °F - 14.0 °F 22% 29.36 in 10.0 mi SW 12.7 mph - N/A   Clear
12:35 AM 53.6 °F - 12.7 °F 20% 29.36 in 10.0 mi SW 13.8 mph - N/A   Clear
12:55 AM 55.9 °F - 12.0 °F 18% 29.36 in 10.0 mi SW 16.1 mph - N/A   Clear
1:15 AM 54.0 °F - 11.5 °F 18% 29.36 in 10.0 mi SW 13.8 mph - N/A   Clear
1:35 AM 53.6 °F - 11.5 °F 19% 29.36 in 10.0 mi SW 15.0 mph - N/A   Clear
1:55 AM 52.2 °F - 11.5 °F 20% 29.36 in 10.0 mi SW 13.8 mph - N/A   Clear
2:15 AM 50.5 °F - 11.3 °F 21% 29.36 in 10.0 mi SW 11.5 mph - N/A   Clear
2:35 AM 48.9 °F - 11.7 °F 22% 29.36 in 10.0 mi SW 11.5 mph - N/A   Clear
2:55 AM 50.9 °F - 11.7 °F 21% 29.36 in 10.0 mi WSW 11.5 mph - N/A   Clear
3:15 AM 46.8 °F - 11.5 °F 24% 29.37 in 10.0 mi SW 11.5 mph - N/A   Clear
3:35 AM 47.3 °F - 11.5 °F 24% 29.36 in 10.0 mi WSW 12.7 mph - N/A   Clear
3:55 AM 46.8 °F - 12.2 °F 25% 29.39 in 10.0 mi WNW 13.8 mph - N/A   Clear
4:15 AM 48.6 °F - 16.7 °F 28% 29.41 in 10.0 mi NNW 17.3 mph - N/A   Clear
4:35 AM 46.8 °F - 19.4 °F 34% 29.42 in 10.0 mi NNW 16.1 mph - N/A   Clear
4:55 AM 46.9 °F - 21.9 °F 37% 29.43 in 10.0 mi NNW 18.4 mph 25.3 mph N/A   Clear
5:15 AM 44.8 °F 38.7 °F 23.0 °F 42% 29.43 in 10.0 mi NNW 12.7 mph - N/A   Clear
5:35 AM 43.7 °F 37.7 °F 23.2 °F 44% 29.44 in 10.0 mi NNW 11.5 mph - N/A   Clear
5:55 AM 41.0 °F 35.2 °F 22.6 °F 48% 29.45 in 10.0 mi NW 9.2 mph - N/A   Clear
6:15 AM 41.2 °F 35.0 °F 22.3 °F 47% 29.46 in 10.0 mi NW 10.4 mph - N/A   Clear
6:35 AM 39.6 °F 32.5 °F 21.9 °F 49% 29.46 in 10.0 mi NW 11.5 mph - N/A   Clear
6:55 AM 38.1 °F 30.7 °F 21.2 °F 51% 29.46 in 10.0 mi NW 11.5 mph - N/A   Clear
7:15 AM 38.1 °F 30.2 °F 21.4 °F 51% 29.48 in 10.0 mi NW 12.7 mph - N/A   Clear
7:35 AM 37.8 °F 31.3 °F 21.2 °F 51% 29.47 in 10.0 mi NW 9.2 mph - N/A   Clear
7:55 AM 37.4 °F 30.3 °F 21.2 °F 52% 29.49 in 10.0 mi NW 10.4 mph - N/A   Clear
8:15 AM 36.0 °F 29.6 °F 20.8 °F 54% 29.50 in 10.0 mi West 8.1 mph - N/A   Clear
8:35 AM 36.1 °F 30.6 °F 21.0 °F 54% 29.52 in 10.0 mi WSW 6.9 mph - N/A   Clear
8:55 AM 38.7 °F 32.9 °F 22.1 °F 51% 29.53 in 10.0 mi West 8.1 mph - N/A   Clear
9:15 AM 42.4 °F 37.0 °F 22.6 °F 46% 29.53 in 10.0 mi WNW 9.2 mph - N/A   Clear
9:35 AM 44.8 °F 38.0 °F 21.6 °F 40% 29.55 in 10.0 mi NW 15.0 mph - N/A   Clear
9:55 AM 46.9 °F - 19.6 °F 34% 29.58 in 10.0 mi NNW 19.6 mph 24.2 mph N/A   Clear
10:15 AM 46.6 °F - 16.7 °F 30% 29.58 in 10.0 mi NNW 24.2 mph 28.8 mph N/A   Clear
10:35 AM 49.5 °F - 14.4 °F 25% 29.58 in 10.0 mi North 19.6 mph 26.5 mph N/A   Clear
10:55 AM 50.4 °F - 15.1 °F 25% 29.60 in 10.0 mi NNW 19.6 mph 25.3 mph N/A   Clear
11:15 AM 51.6 °F - 14.4 °F 23% 29.60 in 10.0 mi NNW 23.0 mph 29.9 mph N/A   Clear
11:35 AM 52.2 °F - 13.5 °F 21% 29.61 in 10.0 mi NNW 18.4 mph 26.5 mph N/A   Clear
11:55 AM 53.6 °F - 11.7 °F 19% 29.62 in 10.0 mi NNW 20.7 mph 25.3 mph N/A   Clear
12:15 PM 53.4 °F - 11.7 °F 19% 29.63 in 10.0 mi NNW 21.9 mph 29.9 mph N/A   Clear
12:35 PM 54.7 °F - 11.8 °F 18% 29.63 in 10.0 mi North 23.0 mph 27.6 mph N/A   Clear
12:55 PM 56.8 °F - 12.0 °F 17% 29.64 in 10.0 mi NNW 20.7 mph 31.1 mph N/A   Clear
1:15 PM 55.8 °F - 11.1 °F 17% 29.65 in 10.0 mi NNW 17.3 mph 24.2 mph N/A   Clear
1:35 PM 57.0 °F - 11.5 °F 17% 29.66 in 10.0 mi NNW 23.0 mph 29.9 mph N/A   Clear
1:55 PM 56.1 °F - 10.0 °F 16% 29.67 in 10.0 mi NW 15.0 mph 29.9 mph N/A   Clear
2:15 PM 58.3 °F - 9.9 °F 15% 29.68 in 10.0 mi WNW 17.3 mph 27.6 mph N/A   Clear
2:35 PM 59.4 °F - 10.8 °F 15% 29.69 in 10.0 mi NW 23.0 mph 33.4 mph N/A   Clear
2:55 PM 58.3 °F - 10.8 °F 15% 29.70 in 10.0 mi NW 21.9 mph 28.8 mph N/A   Clear
3:15 PM 55.2 °F - 16.7 °F 22% 29.72 in 1.5 mi NNW 40.3 mph 47.2 mph N/A   Haze
3:35 PM 54.3 °F - 14.7 °F 21% 29.73 in 1.5 mi NNW 33.4 mph 43.7 mph N/A   Haze
3:55 PM 54.0 °F - 14.5 °F 21% 29.74 in 1.8 mi NNW 39.1 mph 48.3 mph N/A   Haze
4:15 PM 54.0 °F - 13.1 °F 20% 29.76 in 2.0 mi NNW 36.8 mph 47.2 mph N/A   Haze
4:35 PM 52.9 °F - 15.6 °F 23% 29.78 in 1.8 mi NNW 38.0 mph 46.0 mph N/A   Haze
4:55 PM 51.8 °F - 17.1 °F 25% 29.79 in 1.5 mi NNW 39.1 mph 46.0 mph N/A   Haze
5:15 PM 51.4 °F - 16.3 °F 25% 29.81 in 2.0 mi NNW 33.4 mph 46.0 mph N/A   Haze
5:35 PM 50.4 °F - 17.8 °F 28% 29.82 in 1.5 mi North 38.0 mph 48.3 mph N/A   Haze
5:55 PM 48.0 °F - 18.3 °F 31% 29.85 in 1.0 mi North 39.1 mph 54.1 mph N/A   Haze
6:15 PM 46.6 °F - 18.3 °F 32% 29.86 in 1.2 mi North 38.0 mph 46.0 mph N/A   Haze
6:35 PM 44.6 °F 33.6 °F 20.5 °F 38% 29.88 in 1.2 mi North 38.0 mph 48.3 mph N/A   Haze
6:55 PM 43.0 °F 31.1 °F 20.7 °F 41% 29.90 in 1.2 mi North 40.3 mph 47.2 mph N/A   Haze
7:15 PM 41.4 °F 29.5 °F 20.8 °F 44% 29.92 in 1.0 mi North 35.7 mph 47.2 mph N/A   Haze
7:35 PM 41.0 °F 29.8 °F 21.0 °F 45% 29.94 in 2.0 mi North 29.9 mph 44.9 mph N/A   Haze
7:55 PM 40.1 °F 29.2 °F 22.1 °F 49% 29.96 in 2.5 mi North 26.5 mph 39.1 mph N/A   Haze
8:15 PM 39.0 °F 27.8 °F 20.1 °F 47% 29.98 in 3.0 mi North 26.5 mph 39.1 mph N/A   Haze
8:35 PM 38.1 °F 28.1 °F 19.4 °F 47% 29.98 in 3.0 mi North 19.6 mph 27.6 mph N/A   Haze
8:55 PM 37.4 °F 25.4 °F 19.4 °F 48% 29.99 in 3.0 mi North 27.6 mph 38.0 mph N/A   Haze
9:15 PM 36.9 °F 26.2 °F 19.8 °F 50% 30.01 in 3.0 mi North 20.7 mph 29.9 mph N/A   Haze
9:35 PM 36.5 °F 27.4 °F 19.8 °F 51% 30.04 in 4.0 mi North 15.0 mph 23.0 mph N/A   Haze
9:55 PM 36.1 °F 27.3 °F 20.1 °F 52% 30.06 in 4.0 mi North 13.8 mph 20.7 mph N/A   Haze
10:15 PM 35.6 °F 25.2 °F 19.4 °F 52% 30.06 in 5.0 mi North 18.4 mph 24.2 mph N/A   Haze
10:35 PM 34.7 °F 24.7 °F 19.2 °F 53% 30.06 in 5.0 mi North 16.1 mph - N/A   Haze
10:55 PM 34.3 °F 24.6 °F 19.0 °F 54% 30.07 in 5.0 mi North 15.0 mph - N/A   Haze
11:15 PM 33.1 °F 25.5 °F 19.2 °F 57% 30.08 in 7.0 mi North 9.2 mph - N/A   Overcast
11:35 PM 32.2 °F 24.4 °F 18.7 °F 58% 30.10 in 5.0 mi North 9.2 mph - N/A   Haze
11:55 PM 32.0 °F 23.6 °F 19.4 °F 60% 30.10 in 7.0 mi NNW 10.4 mph - N/A   Scattered Clouds